Tracking 20241 objects as of 26-Jan-2020
HD Live streaming from Space Station
objects crossing your sky now

COSMOS 2251 DEB

Track COSMOS 2251 DEB now!
10-day predictions


NORAD ID: 34465
Int'l Code: 1993-036TJ
Perigee: 656.9 km
Apogee: 793.5 km
Inclination: 74.1 °
Period: 99.2 minutes
Semi major axis: 7096 km
RCS: 0.028 m2 (small)
Launch date: June 16, 1993
Source: Commonwealth of Independent States (former USSR) (CIS)
Launch site: PLESETSK MISSILE AND SPACE COMPLEX (PKMTR)

Note: This is SATELLITE DEBRIS
aabbcc
Your satellite tracking list
Your tracking list is empty




NASA's NSSDC Master Catalog

Two Line Element Set (TLE):
1 34465U 93036TJ  20025.51459260 +.00000664 +00000-0 +16066-3 0  9992
2 34465 074.0744 170.9272 0096287 024.7682 335.8056 14.52326464574901
Source of the keplerian elements: AFSPC